Hourly Data Report for November 09, 2019

All times are specified in Local Standard Time (LST). Add 1 hour to adjust for Daylight Saving Time where and when it is observed.

QUALICUM BEACH AIRPORT
BRITISH COLUMBIA
Current Station Operator: ECCC - MSC

49°20'14.000" N
124°23'38.000" W
58.20 m
1026562
71766
VOQ

Download Data

Hourly Data (November 2019)
Hourly Data Report for November 9, 2019
TIME Temp Definition
°C
Dew Point Definition
°C
Rel Hum Definition
%
Wind Dir Definition
10's deg

Wind Spd Definition
km/h
Visibility Definition
km
Stn Press Definition
kPa
Hmdx Definition


Wind Chill Definition


Weather Definition


00:00 7.8 7.3 97 0 1   101.45     LegendNANA
01:00 7.7 7.3 97 14 2   101.49     LegendNANA
02:00 8.0 7.6 97 11 3   101.50     LegendNANA
03:00 8.4 7.9 97 11 9   101.48     LegendNANA
04:00 8.4 7.8 96 12 8   101.42     LegendNANA
05:00 8.2 7.6 96 13 6   101.43     LegendNANA
06:00 8.1 7.6 96 25 3   101.46     LegendNANA
07:00 7.9 7.5 97   0   101.47     LegendNANA
08:00 8.3 7.8 97 14 5   101.51     LegendNANA
09:00 8.7 8.1 96 12 7   101.51     LegendNANA
10:00 9.1 8.5 96 12 8   101.55     LegendNANA
11:00 9.4 8.7 95 12 9   101.55     LegendNANA
12:00 9.9 9.1 95 11 7   101.54     LegendNANA
13:00 9.7 9.0 95 11 7   101.50     LegendNANA
14:00 9.7 9.0 96 12 11   101.50     LegendNANA
15:00 9.7 9.0 95 11 8   101.49     LegendNANA
16:00 9.6 8.9 96 12 8   101.52     LegendNANA
17:00 9.5 8.9 96 12 7   101.51     LegendNANA
18:00 9.5 9.0 97 13 7   101.54     LegendNANA
19:00 9.4 9.0 97 12 4   101.57     LegendNANA
20:00 9.4 9.0 97 12 2   101.59     LegendNANA
21:00 9.4 8.9 97   0   101.64     LegendNANA
22:00 9.3 8.9 97   0   101.66     LegendNANA
23:00 9.4 9.0 97 0 1   101.66     LegendNANA

Notes on Data Quality.

Legend

  • E = Estimated
  • M = Missing
  • NA = Not Available
Date modified: